Wind_Speed
19 15 11 7 4 3 4 6 8 8 11 14 15 17 18 18 15 16 13 15 17 15 15 15 17 14 15 17 18 19 21 20 20 19 19 21 21 19 18 18 19 20 18 17 16 15 14 14 15
18 17 15 12 9 6 1 4 6 7 11 13 15 14 14 15 17 17 17 17 17 16 16 15 15 13 14 15 17 18 17 18 19 19 18 18 21 20 18 17 17 18 17 15 14 13 14 13 15
16 17 15 17 11 6 3 3 9 9 12 14 15 15 13 12 17 16 16 20 17 18 18 15 14 15 15 20 19 19 17 16 14 14 16 17 19 22 19 16 16 17 16 14 13 15 14 13 14
15 15 12 17 14 11 10 8 8 12 12 14 13 9 11 7 8 15 24 22 19 20 20 17 15 16 19 20 19 17 16 16 14 13 16 16 19 21 21 17 16 15 15 15 13 13 14 13 13
15 12 12 12 12 14 17 15 11 10 14 11 12 10 6 7 5 12 24 24 24 23 20 18 17 15 17 16 15 14 16 16 15 12 15 16 20 20 21 19 18 14 14 14 14 13 13 13 12
13 11 11 10 10 13 15 16 20 13 15 11 10 10 7 8 12 22 28 27 26 23 19 18 19 16 14 17 14 15 16 14 15 14 13 15 18 19 19 18 17 19 16 15 13 12 12 12 13
11 11 8 9 10 11 15 15 18 20 8 7 10 13 8 7 15 27 28 34 31 24 20 20 20 17 14 14 13 13 13 13 16 15 13 14 15 16 17 16 15 13 15 16 13 12 11 10 10
11 11 7 8 10 11 12 15 15 23 21 17 11 17 19 14 11 20 22 23 26 24 19 19 18 16 14 12 12 10 10 10 10 11 12 11 13 14 14 14 13 14 12 12 15 10 9 10 10
8 9 8 8 9 10 9 12 13 15 19 20 19 16 17 18 17 16 16 27 29 25 20 16 14 12 12 11 11 9 8 8 9 8 10 10 11 12 9 11 11 12 14 13 12 12 8 10 10
7 6 7 8 7 9 7 6 9 11 14 17 19 18 17 18 17 11 10 22 28 28 21 16 14 11 10 9 8 8 6 9 11 11 9 8 9 8 7 7 9 10 10 11 10 10 10 9 9
8 6 7 8 9 9 8 5 7 8 10 12 15 18 17 16 14 13 9 12 27 26 21 14 10 7 7 6 6 7 6 10 5 8 7 8 7 8 6 5 5 8 8 8 8 10 11 5 5
11 8 9 9 8 7 8 7 7 7 8 8 10 12 13 15 12 14 12 17 16 20 16 13 9 7 6 5 7 6 4 6 8 6 6 6 5 5 6 6 6 5 7 7 6 8 9 8 8
12 11 11 11 10 9 8 7 7 8 7 7 7 6 6 7 7 5 5 7 9 10 10 11 11 6 6 4 6 6 4 3 3 4 5 2 6 5 6 5 8 6 7 7 6 6 7 6 6
12 12 12 12 11 10 9 9 9 8 6 5 6 6 3 1 2 3 4 3 2 4 5 6 9 8 5 1 3 4 3 2 1 2 3 3 2 1 4 5 6 5 5 5 7 8 7 6 5
14 14 13 12 10 10 9 9 9 8 8 7 7 5 5 2 1 3 3 3 3 1 2 4 4 5 2 0 2 2 3 1 1 1 4 5 7 6 5 5 5 5 4 3 4 6 7 8 8
14 15 14 13 12 10 9 11 11 12 10 8 6 5 6 5 4 3 3 3 3 1 1 2 4 6 7 8 7 5 3 4 3 3 5 6 8 4 9 5 3 2 1 2 3 6 7 9 10
12 9 12 10 10 10 10 14 15 14 14 13 12 8 6 4 3 2 3 3 4 3 3 4 6 9 10 10 10 10 7 5 5 6 8 8 7 6 6 6 1 1 1 5 5 6 7 8 7
15 13 10 11 10 12 12 12 10 11 12 10 10 12 10 6 3 1 2 3 3 3 3 5 8 11 12 13 13 12 9 7 7 8 6 8 12 10 7 3 1 5 5 6 6 7 7 9 8
16 11 8 9 11 11 10 8 8 6 8 10 9 8 8 7 5 3 1 2 2 3 2 4 6 9 10 10 10 12 8 7 7 8 6 5 9 12 6 3 1 2 6 8 7 9 9 10 9
19 11 6 7 12 9 8 6 3 3 7 10 9 7 6 8 6 3 2 1 2 2 3 3 5 6 8 9 11 10 10 8 9 7 7 6 8 8 5 3 4 5 6 8 6 6 7 8 6
16 16 13 7 11 12 7 4 2 3 7 9 11 10 7 9 8 6 4 3 3 3 4 5 6 5 6 8 8 8 8 8 10 9 11 6 5 5 4 5 6 6 7 7 3 2 6 7 3
11 18 15 12 9 9 9 6 3 2 5 11 13 13 11 9 6 6 6 5 4 4 4 5 6 4 4 4 2 4 4 7 9 10 10 8 1 2 2 3 5 7 9 10 9 7 7 5 3
22 21 17 14 9 10 8 6 7 4 3 8 13 15 13 8 10 10 9 7 8 6 4 6 7 4 3 5 1 1 3 6 7 7 9 7 5 3 1 1 4 7 9 10 8 7 6 4 4
29 24 19 16 12 8 13 9 7 8 5 3 9 13 16 11 9 11 10 9 8 9 4 5 8 7 4 3 3 3 4 7 9 10 10 9 9 8 4 1 5 7 9 7 7 6 4 2 1
31 27 18 15 14 9 14 14 14 12 8 6 8 9 12 11 5 8 10 10 9 9 7 5 4 6 6 6 6 6 7 8 9 10 11 9 10 10 6 4 3 1 1 5 3 2 1 2 3
35 32 20 17 12 9 17 12 11 16 14 13 10 10 11 10 4 7 7 11 9 10 11 8 6 6 7 9 10 11 10 10 9 10 10 11 11 9 9 7 6 3 4 1 1 0 2 5 6
37 39 25 22 22 20 13 17 16 16 16 15 14 14 13 8 4 9 9 6 8 9 9 7 7 7 7 8 11 12 13 15 13 11 10 11 9 10 9 7 5 4 4 5 3 5 6 7 9
39 35 36 31 23 21 16 19 13 21 17 14 20 19 12 10 12 14 11 5 2 2 3 4 6 7 5 8 13 12 12 12 15 16 13 10 9 10 10 8 6 6 7 7 6 6 8 9 13
36 36 37 27 25 24 20 17 17 26 25 21 21 19 8 8 8 14 14 7 4 3 5 7 8 11 15 15 10 11 13 11 12 12 16 15 11 10 9 10 9 10 10 9 9 6 5 3 9
31 32 31 33 29 26 24 23 19 22 28 29 28 24 14 8 10 14 14 8 4 7 6 6 13 16 22 22 13 12 12 10 9 11 15 19 17 12 9 9 11 13 13 9 8 8 7 7 10
Wind_Direction
64 65 70 74 100 129 142 161 143 133 155 166 170 147 154 157 153 152 137 142 126 122 117 112 105 101 94 93 92 88 75 67 67 68 72 73 71 68 68 67 65 64 75 80 83 82 95 100 116
70 63 59 61 53 51 127 202 175 153 136 150 156 155 152 168 164 155 138 134 129 125 121 113 105 98 90 83 89 89 78 72 69 72 71 73 75 69 78 77 74 67 75 87 94 93 95 106 116
80 73 68 65 54 29 75 174 136 133 132 147 154 173 165 167 173 166 156 137 132 133 121 113 106 101 93 92 88 87 85 82 72 71 73 76 75 72 74 87 84 77 74 86 97 100 93 100 118
90 84 79 78 75 67 64 86 123 129 132 165 156 170 177 176 199 182 151 140 141 134 122 113 109 105 103 98 91 86 89 84 82 77 72 72 74 71 69 89 83 82 82 86 95 105 100 99 116
94 85 79 72 66 71 73 77 86 120 144 158 162 171 178 185 204 184 150 143 143 133 125 119 115 111 113 104 95 88 102 91 81 79 77 74 73 73 68 80 80 86 94 88 90 102 102 109 116
103 94 80 81 75 74 71 75 75 83 131 136 169 182 177 199 184 166 154 147 140 134 129 126 126 127 120 113 105 99 100 95 88 82 81 76 75 73 73 73 82 81 99 94 90 96 101 109 117
102 94 90 86 84 78 83 79 83 72 117 146 142 142 121 125 180 176 172 154 144 131 132 129 127 128 125 122 117 112 104 99 100 92 85 82 73 75 77 79 82 85 84 93 97 98 94 110 112
96 95 102 99 86 72 91 79 71 86 82 78 93 107 97 106 165 168 158 155 149 127 133 129 126 124 120 118 117 117 111 101 96 100 99 90 88 75 81 80 81 80 89 92 86 101 106 105 121
97 99 104 98 105 97 80 87 75 73 83 75 73 93 108 107 121 148 169 156 135 133 131 130 128 126 122 126 126 125 114 92 80 91 106 116 105 105 86 93 90 87 93 101 89 94 109 117 112
93 108 122 114 114 113 102 82 76 76 79 79 76 83 94 99 104 145 126 163 149 141 139 139 141 140 131 127 132 128 115 102 90 93 90 129 125 116 111 108 109 104 98 100 106 99 105 121 120
97 104 120 132 120 105 93 93 87 76 76 76 74 75 85 83 80 60 144 159 149 148 139 138 139 130 127 132 113 109 128 125 98 112 104 102 123 113 121 131 143 126 122 111 104 124 129 115 143
96 108 113 110 106 108 110 108 101 94 89 74 71 77 84 78 67 85 79 87 165 149 138 127 108 97 106 135 122 119 118 120 109 110 131 128 128 125 115 135 160 169 156 148 142 135 137 128 152
86 88 93 95 93 95 94 98 100 89 89 96 87 90 109 109 97 65 73 96 99 117 122 122 131 125 103 101 82 91 99 94 114 108 119 152 144 112 118 119 131 157 162 163 170 174 172 163 162
94 92 89 94 98 92 86 85 88 90 88 82 88 83 71 135 267 299 321 326 3 109 131 139 162 149 154 115 68 56 67 77 98 148 151 199 48 141 119 125 131 153 159 166 179 185 201 210 195
104 100 98 95 92 89 92 90 93 94 89 78 79 95 95 75 3 295 276 258 239 184 138 155 180 211 228 256 357 344 352 355 48 257 224 190 221 272 156 124 132 137 140 167 198 210 210 212 215
120 112 106 104 99 93 92 85 80 78 77 76 59 66 86 105 139 201 226 238 247 166 203 214 234 251 260 270 276 280 290 313 300 250 259 228 241 254 131 130 113 172 226 326 233 230 223 211 215
153 133 125 127 114 105 97 90 84 74 67 73 68 57 55 62 91 143 173 206 240 236 232 249 248 250 256 260 267 275 269 262 251 253 249 240 242 233 150 108 93 296 226 291 275 246 222 220 236
177 155 147 138 136 131 120 99 70 58 50 49 61 60 51 46 73 186 221 206 229 236 250 256 261 261 258 258 258 253 253 255 228 245 233 252 236 177 143 150 334 325 307 306 276 237 204 220 235
196 188 181 161 149 146 141 118 57 35 37 36 45 55 60 41 27 41 302 226 222 250 244 261 269 266 257 247 238 233 218 245 228 234 229 257 214 164 133 149 323 304 317 310 274 246 235 209 214
205 193 200 190 184 170 170 165 13 36 48 38 30 44 59 47 38 27 7 278 251 276 302 270 270 272 263 246 243 235 215 216 213 218 194 136 101 109 98 67 42 20 349 330 307 239 206 203 210
207 201 207 214 200 199 184 205 195 331 16 17 21 16 32 33 37 32 354 341 284 298 326 323 293 300 288 266 260 248 228 217 205 192 205 242 142 137 99 69 59 62 47 43 60 148 166 168 185
198 225 226 232 211 219 213 223 187 66 1 5 19 7 11 18 15 29 17 8 326 288 300 305 284 286 285 283 268 270 246 222 208 207 224 259 77 99 66 44 57 65 55 61 69 85 94 91 82
208 212 221 221 207 211 216 196 208 174 323 359 355 354 353 344 347 341 12 7 354 302 279 292 286 275 296 312 351 272 221 224 220 229 216 240 242 236 271 22 64 65 69 67 68 71 74 62 37
212 213 215 219 228 244 243 201 229 222 260 351 341 339 348 344 327 341 351 353 351 306 278 276 274 268 245 251 243 226 213 201 214 223 233 239 238 250 249 178 83 74 58 61 71 73 68 66 8
212 212 219 239 242 233 257 221 196 224 226 249 289 317 343 335 324 344 344 344 346 326 304 282 292 286 272 258 258 239 219 215 215 218 222 222 220 233 217 213 131 139 47 37 58 68 5 281 275
219 217 219 232 227 248 245 194 219 227 223 233 264 294 325 322 312 345 355 353 1 349 328 302 297 291 292 290 274 265 260 240 220 219 211 218 228 226 217 209 194 173 139 162 23 21 308 296 296
224 223 221 227 240 231 229 244 228 226 236 244 262 282 306 305 313 334 326 5 24 2 344 320 304 295 337 316 295 273 268 266 256 243 215 209 210 206 199 212 204 195 213 230 252 265 272 286 297
222 217 225 232 231 239 239 244 229 221 218 245 260 271 267 264 290 308 311 303 37 6 288 322 335 302 308 322 293 271 266 263 264 260 250 222 204 205 210 203 207 225 234 240 246 266 296 313 308
224 224 223 219 235 241 247 249 252 215 224 233 256 260 260 261 319 308 308 296 255 242 266 314 316 275 272 285 248 255 258 263 270 268 254 239 221 215 207 192 197 229 235 237 248 278 314 39 4
224 229 226 228 233 243 241 235 257 229 235 237 239 253 242 255 280 300 298 318 228 229 265 316 330 317 288 258 255 253 254 259 278 271 251 230 222 215 203 189 198 223 234 238 266 272 232 268 314
Height
5898 5898 5898 5898 5901 5899 5899 5899 5898 5899 5900 5900 5901 5903 5904 5905 5908 5911 5910 5911 5913 5914 5915 5917 5916 5917 5917 5917 5917 5917 5917 5918 5916 5915 5913 5911 5911 5911 5910 5909 5908 5907 5907 5908 5909 5911 5911 5911 5909
5902 5901 5901 5901 5902 5900 5901 5901 5900 5900 5900 5901 5903 5904 5905 5907 5908 5910 5911 5912 5914 5915 5917 5919 5919 5919 5919 5919 5920 5918 5920 5921 5920 5919 5917 5916 5914 5914 5912 5912 5911 5911 5910 5912 5912 5914 5915 5914 5914
5906 5905 5906 5905 5905 5903 5902 5901 5901 5902 5902 5904 5905 5905 5906 5908 5909 5910 5911 5913 5915 5916 5918 5920 5921 5921 5921 5921 5923 5922 5922 5923 5924 5923 5920 5919 5917 5917 5916 5915 5915 5915 5915 5915 5916 5917 5918 5918 5918
5909 5909 5911 5909 5909 5906 5904 5902 5901 5903 5904 5906 5906 5907 5908 5910 5910 5909 5911 5913 5916 5917 5919 5921 5923 5923 5924 5924 5926 5926 5926 5926 5926 5926 5923 5922 5919 5919 5918 5918 5918 5917 5918 5918 5919 5920 5920 5921 5921
5911 5913 5913 5913 5912 5911 5908 5906 5905 5905 5905 5907 5908 5909 5910 5911 5911 5911 5913 5915 5917 5918 5920 5923 5925 5927 5926 5927 5928 5927 5927 5928 5928 5928 5927 5925 5922 5921 5921 5921 5922 5921 5920 5920 5921 5922 5923 5924 5925
5915 5916 5916 5917 5915 5914 5912 5911 5909 5907 5907 5908 5908 5909 5910 5910 5912 5913 5913 5915 5918 5920 5922 5925 5927 5928 5929 5927 5930 5929 5929 5929 5929 5929 5929 5928 5926 5925 5924 5924 5923 5924 5923 5923 5924 5925 5925 5926 5927
5918 5918 5919 5919 5918 5917 5915 5915 5913 5910 5909 5909 5909 5910 5912 5911 5912 5912 5913 5912 5915 5921 5925 5927 5928 5929 5930 5930 5931 5931 5930 5930 5930 5930 5930 5930 5929 5928 5927 5926 5927 5927 5927 5927 5927 5929 5929 5928 5929
5920 5920 5921 5921 5920 5919 5919 5918 5917 5914 5914 5913 5912 5910 5913 5914 5915 5917 5918 5920 5921 5922 5926 5928 5930 5931 5932 5933 5933 5933 5932 5932 5931 5931 5930 5931 5931 5931 5930 5929 5929 5929 5929 5929 5929 5931 5932 5932 5932
5922 5923 5923 5922 5922 5922 5922 5921 5920 5918 5917 5916 5916 5914 5914 5915 5916 5920 5920 5920 5922 5925 5928 5930 5931 5932 5933 5934 5934 5935 5934 5933 5932 5931 5931 5932 5932 5933 5932 5932 5931 5931 5931 5931 5931 5932 5933 5934 5934
5923 5923 5923 5924 5924 5923 5924 5924 5923 5922 5921 5920 5920 5919 5919 5918 5919 5920 5921 5922 5923 5925 5927 5930 5932 5933 5935 5935 5935 5936 5935 5935 5934 5933 5933 5934 5933 5933 5933 5934 5934 5933 5933 5933 5933 5934 5935 5936 5936
5925 5925 5924 5925 5925 5925 5925 5925 5924 5924 5924 5923 5923 5923 5923 5923 5923 5922 5923 5924 5925 5927 5929 5931 5933 5934 5935 5935 5935 5935 5936 5935 5936 5935 5935 5935 5935 5935 5935 5935 5935 5936 5936 5935 5935 5936 5936 5937 5938
5927 5927 5926 5926 5926 5926 5926 5927 5926 5926 5926 5926 5926 5927 5928 5927 5928 5927 5928 5928 5927 5928 5932 5933 5934 5935 5935 5935 5936 5936 5937 5937 5937 5937 5935 5936 5936 5936 5936 5936 5936 5937 5937 5937 5937 5938 5939 5938 5939
5929 5929 5928 5927 5927 5927 5927 5928 5928 5927 5927 5926 5927 5928 5930 5930 5931 5931 5931 5932 5934 5933 5934 5935 5935 5936 5936 5936 5936 5936 5937 5937 5937 5938 5938 5937 5937 5937 5937 5937 5936 5937 5938 5938 5938 5939 5940 5940 5940
5931 5931 5930 5930 5929 5928 5929 5929 5930 5929 5928 5928 5928 5929 5931 5932 5933 5933 5934 5935 5935 5935 5935 5936 5937 5937 5937 5937 5937 5937 5937 5937 5937 5938 5938 5937 5938 5938 5937 5937 5937 5938 5939 5939 5940 5940 5940 5941 5941
5933 5934 5933 5932 5931 5931 5931 5931 5932 5932 5931 5930 5930 5930 5931 5932 5933 5933 5934 5935 5936 5936 5936 5937 5937 5938 5938 5938 5937 5937 5937 5936 5937 5937 5937 5938 5937 5937 5937 5938 5938 5938 5939 5940 5940 5940 5940 5941 5941
5936 5936 5936 5935 5935 5934 5934 5934 5933 5933 5933 5932 5932 5932 5932 5933 5933 5934 5934 5934 5934 5934 5934 5936 5936 5936 5937 5937 5937 5937 5936 5935 5936 5937 5937 5938 5937 5936 5935 5938 5939 5939 5938 5939 5939 5939 5940 5941 5941
5938 5941 5938 5938 5937 5937 5936 5936 5936 5936 5935 5935 5934 5934 5934 5934 5934 5934 5933 5933 5933 5932 5932 5933 5934 5935 5936 5936 5936 5936 5935 5934 5934 5935 5936 5936 5937 5937 5936 5938 5940 5940 5939 5939 5939 5938 5939 5939 5940
5940 5940 5941 5939 5939 5937 5938 5937 5937 5937 5937 5936 5936 5935 5934 5934 5934 5933 5933 5932 5932 5932 5932 5932 5932 5932 5933 5934 5935 5934 5934 5933 5934 5934 5935 5935 5935 5936 5937 5938 5939 5938 5937 5936 5936 5936 5937 5938 5939
5938 5940 5941 5941 5941 5940 5939 5939 5938 5937 5937 5937 5936 5935 5934 5934 5935 5935 5934 5933 5932 5932 5932 5932 5931 5930 5930 5931 5932 5932 5932 5932 5933 5933 5934 5934 5933 5934 5936 5938 5939 5938 5936 5935 5934 5935 5936 5938 5938
5937 5939 5940 5940 5941 5941 5940 5939 5939 5938 5937 5936 5936 5935 5935 5935 5934 5935 5935 5933 5932 5931 5931 5931 5930 5929 5930 5930 5930 5930 5931 5931 5932 5933 5934 5935 5933 5935 5937 5938 5938 5936 5935 5933 5932 5933 5935 5938 5938
5936 5938 5938 5939 5939 5940 5941 5941 5940 5939 5938 5936 5936 5936 5935 5934 5934 5934 5934 5933 5931 5930 5929 5930 5930 5930 5930 5930 5930 5930 5931 5932 5933 5934 5934 5934 5935 5936 5937 5938 5937 5938 5937 5935 5934 5934 5936 5939 5940
5935 5934 5936 5937 5939 5943 5941 5945 5941 5940 5939 5937 5936 5936 5936 5935 5935 5934 5934 5933 5931 5930 5930 5930 5931 5930 5929 5929 5929 5930 5932 5932 5932 5934 5935 5937 5937 5936 5937 5939 5939 5938 5937 5936 5936 5936 5937 5938 5939
5930 5930 5933 5935 5938 5940 5941 5942 5942 5941 5940 5938 5936 5935 5934 5935 5935 5934 5933 5933 5931 5931 5930 5930 5930 5930 5929 5930 5929 5929 5930 5931 5932 5934 5936 5937 5938 5938 5938 5939 5940 5939 5939 5938 5938 5938 5937 5936 5936
5924 5929 5932 5934 5937 5939 5941 5942 5944 5941 5940 5939 5936 5934 5933 5933 5934 5933 5933 5932 5931 5931 5930 5929 5929 5929 5928 5927 5928 5929 5930 5930 5931 5933 5935 5937 5938 5939 5940 5940 5940 5940 5939 5938 5937 5937 5937 5936 5936
5922 5926 5932 5936 5937 5940 5936 5939 5943 5940 5940 5938 5937 5934 5933 5932 5933 5933 5932 5932 5932 5931 5930 5929 5929 5929 5927 5927 5928 5928 5928 5929 5930 5932 5934 5936 5937 5938 5940 5941 5941 5940 5939 5939 5938 5937 5937 5936 5935
5919 5922 5930 5933 5937 5940 5934 5937 5941 5938 5938 5937 5936 5934 5933 5932 5933 5932 5931 5931 5931 5931 5930 5929 5927 5927 5926 5926 5927 5928 5929 5929 5928 5929 5931 5933 5935 5937 5939 5939 5939 5939 5938 5938 5936 5936 5935 5935 5935
5912 5915 5923 5927 5930 5930 5934 5935 5937 5937 5937 5936 5935 5933 5932 5932 5932 5931 5931 5931 5930 5930 5929 5927 5926 5926 5926 5926 5925 5926 5927 5929 5929 5930 5930 5930 5932 5935 5937 5938 5939 5939 5938 5937 5938 5936 5935 5934 5934
5903 5913 5915 5919 5923 5927 5930 5930 5932 5933 5934 5933 5931 5932 5931 5930 5931 5930 5930 5929 5929 5929 5928 5928 5927 5926 5925 5924 5924 5924 5923 5924 5927 5929 5930 5930 5930 5932 5935 5936 5937 5937 5936 5936 5935 5934 5934 5934 5932
5898 5903 5908 5915 5920 5922 5925 5929 5928 5928 5928 5929 5928 5929 5929 5928 5929 5928 5928 5927 5927 5927 5927 5925 5923 5922 5922 5921 5920 5921 5922 5921 5922 5925 5927 5928 5929 5930 5933 5934 5935 5934 5935 5935 5933 5933 5932 5932 5930
5892 5897 5903 5907 5912 5914 5917 5921 5921 5922 5922 5923 5924 5924 5925 5925 5926 5927 5926 5925 5924 5924 5924 5924 5923 5920 5917 5917 5920 5919 5919 5919 5918 5919 5921 5924 5927 5929 5931 5931 5931 5931 5932 5932 5932 5931 5930 5928 5928